Regional Weather Roundup
Issued by NWS Huntsville, AL

Home | Current Version | Previous Version | Text Only | Print | Product List | Glossary On
Versions: 1 2 3 4 5 6 7 8 9 10 11 12 13 14 15 16 17 18 19 20 21 22 23 24 25 26 27 28 29 30 31 32 33 34 35 36 37 38 39 40 41 42 43 44 45 46 47 48 49 50
000
ASUS44 KHUN 090110
RWRHUN

WEATHER ROUNDUP FOR THE TENNESSEE VALLEY
NATIONAL WEATHER SERVICE HUNTSVILLE AL
700 PM CST THU DEC 08 2016

ALZ001>004-090200-
NORTHWEST ALABAMA

CITY           SKY/WX    TMP DP  RH WIND       PRES   REMARKS
SHOALS AIRPORT CLOUDY    35  15  44 NW8       30.49R WCI  29
$$

ALZ005>007-016-090200-
NORTH CENTRAL ALABAMA

CITY           SKY/WX    TMP DP  RH WIND       PRES   REMARKS
DECATUR AP     PTCLDY    35  20  54 NW8       30.45R WCI  29
HUNTSVILLE AP  PTCLDY    37  18  46 NW8       30.44R WCI  31
MERIDIANVILLE  PTCLDY    34  18  51 CALM      30.43R
REDSTONE ARSN  PTCLDY    35  17  47 N9        30.43R WCI  28
VINEMONT AP    FAIR      35  17  46 NW8       30.43S WCI  29
$$

ALZ008>010-090200-
NORTHEAST ALABAMA

CITY           SKY/WX    TMP DP  RH WIND       PRES   REMARKS
ALBERTVILLE    CLOUDY    36  28  75 NW3       30.38R
FORT PAYNE     PTCLDY    32  19  59 CALM      30.38S
SCOTTSBORO AP  PTCLDY    36  21  55 CALM      30.42R
VALLEY HEAD      N/A     30 N/A N/A MISG        N/A
$$

TNZ076-096-097-090200-
SOUTHEASTERN MIDDLE TENNESSEE

CITY           SKY/WX    TMP DP  RH WIND       PRES   REMARKS
TULLAHOMA      CLEAR     28  12  50 N8        30.42R WCI  20
WINCHESTER     CLEAR     32  18  55 N7        30.41S WCI  26
$$

...SURROUNDING SITES...

CITY           SKY/WX    TMP DP  RH WIND       PRES   REMARKS
ATLANTA        PTCLDY    38  21  50 NW7       30.33R WCI  33
ANNISTON       CLEAR     40  19  43 NW3       30.41R
BIRMINGHAM     MOCLDY    40  23  50 NW7       30.44R
CHATTANOOGA    PTCLDY    36  16  44 NW7       30.40R WCI  30
CORINTH        FAIR      32  16  51 NW9       30.51R WCI  24
DALTON         CLOUDY    36  18  48 NW3       30.37S
GADSDEN        MOCLDY    38  22  52 NW3       30.41R
GOLDEN TRNGL   PTCLDY    39  19  45 N9        30.43R WCI  33
HALEYVILLE     FAIR      33  20  58 N8        30.46R WCI  26
JACKSON TN     PTCLDY    30  18  60 NW5       30.54R WCI  25
MEMPHIS        PTCLDY    32  17  54 N3        30.55R
NASHVILLE      MOCLDY    31  14  49 NW6       30.48R WCI  25
OXFORD MS      FAIR      32  18  55 N7        30.55R WCI  26
ROME           CLOUDY    39  18  42 N6        30.37R WCI  35
SAVANNAH       CLEAR     32  18  55 NW8       30.50R WCI  25
TUPELO         PTCLDY    35  15  44 NW12      30.51R WCI  27
TUSCALOOSA     CLOUDY    41  22  46 N8        30.45R
$$

...GULF COAST WEATHER...

CITY           SKY/WX    TMP DP  RH WIND       PRES   REMARKS
GULFPORT       CLOUDY    50  29  44 N14G25    30.39R
PASCAGOULA     MOCLDY    49  26  41 N18G30    30.39R
MOBILE         CLOUDY    47  28  47 N14       30.40R
GULF SHORES    CLOUDY    49  34  54 N7        30.37R
PENSACOLA      MOCLDY    51  31  46 N14       30.36R
DESTIN         PTCLDY    54  31  41 N17       30.33R
PANAMA CITY    CLOUDY    56  38  51 N12       30.29R
APPALACHICOLA  CLOUDY    57  41  55 N10       30.25R
$$




USA.gov is the U.S. government's official web portal to all federal, state and local government web resources and services.